Location: Brivio
(45.7333°N, 9.4500°E)
Time: 00:33:08
(UTC+00:00)

Cosmos 2058 - Pass Details

Date: 18 October 2019
Orbit: 563 x 583 km, 82.5° (Epoch: 16 November)

Event Time Altitude Azimuth Distance (km) Brightness Sun altitude
Rises 18:56:16 0° 348° (NNW) 2,820 6.8 -25.8°
Reaches altitude 10° 18:58:28 10° 346° (NNW) 1,915 5.9 -26.2°
Enters shadow 19:01:41 48° 325° (NW) 769 3.7 -26.7°
